******** Week 147 almanac for PRN-1 ******** ID: 1 Health: 0 Eccentricity: 0.01133203506 Time of Applicability(s): 319488 Orbital Inclination(rad): 0.9865258147 Rate of Right Ascen(r/s): -8.023191341e-09 SQRT(A) (m 1/2): 5153.62207 Right Ascen at Week(rad): -1.661424032 Argument of Perigee(rad): 0.8826070806 Mean Anom(rad): 3.032230985 Af0(s): 0.0003489512085 Af1(s/s): -1.091394e-11 week: 147 ******** Week 147 almanac for PRN-2 ******** ID: 2 Health: 0 Eccentricity: 0.02067661285 Time of Applicability(s): 319488 Orbital Inclination(rad): 0.9648882966 Rate of Right Ascen(r/s): -8.103194673e-09 SQRT(A) (m 1/2): 5153.634766 Right Ascen at Week(rad): -1.750464951 Argument of Perigee(rad): -1.448042661 Mean Anom(rad): -3.097936371 Af0(s): -0.0005140058838 Af1(s/s): 0 week: 147 ******** Week 147 almanac for PRN-3 ******** ID: 3 Health: 0 Eccentricity: 0.003862380981 Time of Applicability(s): 319488 Orbital Inclination(rad): 0.9725402243 Rate of Right Ascen(r/s): -8.114623721e-09 SQRT(A) (m 1/2): 5153.63916 Right Ascen at Week(rad): -0.6258023681 Argument of Perigee(rad): 0.967724289 Mean Anom(rad): 1.870392588 Af0(s): -8.215050049e-05 Af1(s/s): -1.455192e-11 week: 147 ******** Week 147 almanac for PRN-4 ******** ID: 4 Health: 0 Eccentricity: 0.001689910889 Time of Applicability(s): 319488 Orbital Inclination(rad): 0.9614308478 Rate of Right Ascen(r/s): -7.634603726e-09 SQRT(A) (m 1/2): 5153.615723 Right Ascen at Week(rad): 0.4550473865 Argument of Perigee(rad): -3.079113647 Mean Anom(rad): -1.45223639 Af0(s): -0.0001514885376 Af1(s/s): 3.637979e-12 week: 147 ******** Week 147 almanac for PRN-5 ******** ID: 5 Health: 0 Eccentricity: 0.005867958069 Time of Applicability(s): 319488 Orbital Inclination(rad): 0.9595013876 Rate of Right Ascen(r/s): -8.251772291e-09 SQRT(A) (m 1/2): 5153.606934 Right Ascen at Week(rad): -0.6660307895 Argument of Perigee(rad): 1.012025474 Mean Anom(rad): -0.6009294838 Af0(s): -5.50182251e-05 Af1(s/s): 0 week: 147 ******** Week 147 almanac for PRN-6 ******** ID: 6 Health: 0 Eccentricity: 0.002664089203 Time of Applicability(s): 319488 Orbital Inclination(rad): 0.9859086271 Rate of Right Ascen(r/s): -7.988904198e-09 SQRT(A) (m 1/2): 5153.614258 Right Ascen at Week(rad): -1.669698391 Argument of Perigee(rad): -0.9746032341 Mean Anom(rad): -2.905914633 Af0(s): 0.0001492275146 Af1(s/s): 1.091394e-11 week: 147 ******** Week 147 almanac for PRN-7 ******** ID: 7 Health: 0 Eccentricity: 0.01548957825 Time of Applicability(s): 319488 Orbital Inclination(rad): 0.95057314 Rate of Right Ascen(r/s): -8.091765626e-09 SQRT(A) (m 1/2): 5153.633301 Right Ascen at Week(rad): 1.474137561 Argument of Perigee(rad): -2.293545083 Mean Anom(rad): 2.366855208 Af0(s): 0.0002426831299 Af1(s/s): 3.637979e-12 week: 147 ******** Week 147 almanac for PRN-8 ******** ID: 8 Health: 0 Eccentricity: 0.007238388061 Time of Applicability(s): 319488 Orbital Inclination(rad): 0.9651879023 Rate of Right Ascen(r/s): -7.646032773e-09 SQRT(A) (m 1/2): 5153.67334 Right Ascen at Week(rad): -2.740974996 Argument of Perigee(rad): 0.09349118557 Mean Anom(rad): -0.9708334463 Af0(s): -4.295943603e-05 Af1(s/s): 0 week: 147 ******** Week 147 almanac for PRN-9 ******** ID: 9 Health: 0 Eccentricity: 0.002290248871 Time of Applicability(s): 319488 Orbital Inclination(rad): 0.9544440446 Rate of Right Ascen(r/s): -7.726036106e-09 SQRT(A) (m 1/2): 5153.586426 Right Ascen at Week(rad): 0.4022126839 Argument of Perigee(rad): 1.87097944 Mean Anom(rad): -0.6270992859 Af0(s): -0.00028112052 Af1(s/s): 0 week: 147 ******** Week 147 almanac for PRN-10 ******** ID: 10 Health: 0 Eccentricity: 0.007496833801 Time of Applicability(s): 319488 Orbital Inclination(rad): 0.9723604609 Rate of Right Ascen(r/s): -8.068907531e-09 SQRT(A) (m 1/2): 5153.630859 Right Ascen at Week(rad): -0.628595816 Argument of Perigee(rad): -2.522724284 Mean Anom(rad): 1.009532007 Af0(s): -0.0002449441528 Af1(s/s): -1.091394e-11 week: 147 ******** Week 147 almanac for PRN-11 ******** ID: 11 Health: 255 Eccentricity: 0.0002861022949 Time of Applicability(s): 319488 Orbital Inclination(rad): 0.9616285875 Rate of Right Ascen(r/s): -8.274630386e-09 SQRT(A) (m 1/2): 5153.712891 Right Ascen at Week(rad): -1.617334443 Argument of Perigee(rad): 2.840159063 Mean Anom(rad): -1.092484939 Af0(s): -8.365784912e-05 Af1(s/s): -4.001777e-11 week: 147 ******** Week 147 almanac for PRN-12 ******** ID: 12 Health: 0 Eccentricity: 0.00864648819 Time of Applicability(s): 319488 Orbital Inclination(rad): 0.970502906 Rate of Right Ascen(r/s): -7.863184676e-09 SQRT(A) (m 1/2): 5153.552734 Right Ascen at Week(rad): 2.587010288 Argument of Perigee(rad): 1.241111424 Mean Anom(rad): 1.710157883 Af0(s): -0.0001303856567 Af1(s/s): -7.275958e-12 week: 147 ******** Week 147 almanac for PRN-13 ******** ID: 13 Health: 0 Eccentricity: 0.005795001984 Time of Applicability(s): 319488 Orbital Inclination(rad): 0.9688251145 Rate of Right Ascen(r/s): -7.554600394e-09 SQRT(A) (m 1/2): 5153.635254 Right Ascen at Week(rad): 0.5547995805 Argument of Perigee(rad): 0.9647742971 Mean Anom(rad): -1.561683822 Af0(s): 0.0002019847168 Af1(s/s): 7.275958e-12 week: 147 ******** Week 147 almanac for PRN-14 ******** ID: 14 Health: 0 Eccentricity: 0.001380443573 Time of Applicability(s): 319488 Orbital Inclination(rad): 0.9538927703 Rate of Right Ascen(r/s): -8.023191341e-09 SQRT(A) (m 1/2): 5153.586426 Right Ascen at Week(rad): 2.555926954 Argument of Perigee(rad): 3.028673168 Mean Anom(rad): 1.762660398 Af0(s): -6.255496826e-05 Af1(s/s): -3.637979e-12 week: 147 ******** Week 147 almanac for PRN-15 ******** ID: 15 Health: 0 Eccentricity: 0.01392030716 Time of Applicability(s): 319488 Orbital Inclination(rad): 0.930325792 Rate of Right Ascen(r/s): -7.943188008e-09 SQRT(A) (m 1/2): 5153.686035 Right Ascen at Week(rad): 0.2965402827 Argument of Perigee(rad): 1.073755468 Mean Anom(rad): -1.975276651 Af0(s): -6.858436279e-05 Af1(s/s): 3.637979e-12 week: 147 ******** Week 147 almanac for PRN-16 ******** ID: 16 Health: 0 Eccentricity: 0.01272678375 Time of Applicability(s): 319488 Orbital Inclination(rad): 0.9704729455 Rate of Right Ascen(r/s): -7.817468486e-09 SQRT(A) (m 1/2): 5153.541992 Right Ascen at Week(rad): 2.605628905 Argument of Perigee(rad): 0.7028534441 Mean Anom(rad): -0.1449814079 Af0(s): -0.0003670393921 Af1(s/s): -3.637979e-12 week: 147 ******** Week 147 almanac for PRN-17 ******** ID: 17 Health: 0 Eccentricity: 0.01365470886 Time of Applicability(s): 319488 Orbital Inclination(rad): 0.9802640572 Rate of Right Ascen(r/s): -7.520313251e-09 SQRT(A) (m 1/2): 5153.713867 Right Ascen at Week(rad): -2.659311117 Argument of Perigee(rad): -1.501579938 Mean Anom(rad): -1.065838764 Af0(s): 0.0004499435669 Af1(s/s): 3.637979e-12 week: 147 ******** Week 147 almanac for PRN-18 ******** ID: 18 Health: 0 Eccentricity: 0.002095222473 Time of Applicability(s): 319488 Orbital Inclination(rad): 0.9703171505 Rate of Right Ascen(r/s): -8.171768958e-09 SQRT(A) (m 1/2): 5153.572266 Right Ascen at Week(rad): -1.653411829 Argument of Perigee(rad): 3.105092076 Mean Anom(rad): -3.052267111 Af0(s): 0.0001967089966 Af1(s/s): -7.275958e-12 week: 147 ******** Week 147 almanac for PRN-19 ******** ID: 19 Health: 0 Eccentricity: 0.008949279785 Time of Applicability(s): 319488 Orbital Inclination(rad): 0.9789877373 Rate of Right Ascen(r/s): -7.543171346e-09 SQRT(A) (m 1/2): 5153.644531 Right Ascen at Week(rad): -2.614435064 Argument of Perigee(rad): 2.003191656 Mean Anom(rad): 1.341041883 Af0(s): 8.968724365e-05 Af1(s/s): 3.637979e-12 week: 147 ******** Week 147 almanac for PRN-20 ******** ID: 20 Health: 0 Eccentricity: 0.005227565765 Time of Applicability(s): 319488 Orbital Inclination(rad): 0.9416269161 Rate of Right Ascen(r/s): -8.468924193e-09 SQRT(A) (m 1/2): 5153.681152 Right Ascen at Week(rad): -0.7798269972 Argument of Perigee(rad): 3.122023165 Mean Anom(rad): -2.217628389 Af0(s): 0.0004084914795 Af1(s/s): 0 week: 147 ******** Week 147 almanac for PRN-21 ******** ID: 21 Health: 0 Eccentricity: 0.02457284927 Time of Applicability(s): 319488 Orbital Inclination(rad): 0.9591358687 Rate of Right Ascen(r/s): -8.126052768e-09 SQRT(A) (m 1/2): 5153.536133 Right Ascen at Week(rad): -1.75201541 Argument of Perigee(rad): -1.013471072 Mean Anom(rad): -0.8903560055 Af0(s): 0.0001243562622 Af1(s/s): 0 week: 147 ******** Week 147 almanac for PRN-22 ******** ID: 22 Health: 0 Eccentricity: 0.01282787323 Time of Applicability(s): 319488 Orbital Inclination(rad): 0.9615566821 Rate of Right Ascen(r/s): -7.646032773e-09 SQRT(A) (m 1/2): 5153.611328 Right Ascen at Week(rad): 0.5033389443 Argument of Perigee(rad): -1.875652913 Mean Anom(rad): -1.19944527 Af0(s): 0.000164301001 Af1(s/s): 7.275958e-12 week: 147 ******** Week 147 almanac for PRN-23 ******** ID: 23 Health: 0 Eccentricity: 0.001981258392 Time of Applicability(s): 319488 Orbital Inclination(rad): 0.9673989918 Rate of Right Ascen(r/s): -8.160339911e-09 SQRT(A) (m 1/2): 5153.650391 Right Ascen at Week(rad): -0.6533848107 Argument of Perigee(rad): 2.949111023 Mean Anom(rad): 2.334735613 Af0(s): 3.768371582e-06 Af1(s/s): -3.637979e-12 week: 147 ******** Week 147 almanac for PRN-24 ******** ID: 24 Health: 0 Eccentricity: 0.01231908798 Time of Applicability(s): 319488 Orbital Inclination(rad): 0.9340888386 Rate of Right Ascen(r/s): -8.274630386e-09 SQRT(A) (m 1/2): 5153.630859 Right Ascen at Week(rad): 1.391567001 Argument of Perigee(rad): 0.8057608599 Mean Anom(rad): -2.951046849 Af0(s): 0.0002185655518 Af1(s/s): 0 week: 147 ******** Week 147 almanac for PRN-25 ******** ID: 25 Health: 0 Eccentricity: 0.01045942307 Time of Applicability(s): 319488 Orbital Inclination(rad): 0.957871533 Rate of Right Ascen(r/s): -8.023191341e-09 SQRT(A) (m 1/2): 5153.65625 Right Ascen at Week(rad): 2.510458056 Argument of Perigee(rad): 0.976118115 Mean Anom(rad): 1.464666279 Af0(s): 0.0002208265747 Af1(s/s): 7.275958e-12 week: 147 ******** Week 147 almanac for PRN-26 ******** ID: 26 Health: 0 Eccentricity: 0.006852149963 Time of Applicability(s): 319488 Orbital Inclination(rad): 0.9386787968 Rate of Right Ascen(r/s): -8.228914196e-09 SQRT(A) (m 1/2): 5153.62793 Right Ascen at Week(rad): 2.46370722 Argument of Perigee(rad): 0.3613056557 Mean Anom(rad): 0.8133191607 Af0(s): 0.0001424444458 Af1(s/s): 3.637979e-12 week: 147 ******** Week 147 almanac for PRN-27 ******** ID: 27 Health: 0 Eccentricity: 0.01014852524 Time of Applicability(s): 319488 Orbital Inclination(rad): 0.9738764653 Rate of Right Ascen(r/s): -7.577458489e-09 SQRT(A) (m 1/2): 5153.61084 Right Ascen at Week(rad): -2.721664291 Argument of Perigee(rad): 0.6334909974 Mean Anom(rad): -1.025580756 Af0(s): 7.988947754e-05 Af1(s/s): 1.818989e-11 week: 147 ******** Week 147 almanac for PRN-29 ******** ID: 29 Health: 0 Eccentricity: 0.001798152924 Time of Applicability(s): 319488 Orbital Inclination(rad): 0.9822594307 Rate of Right Ascen(r/s): -7.486026109e-09 SQRT(A) (m 1/2): 5153.720215 Right Ascen at Week(rad): -2.646331827 Argument of Perigee(rad): 2.268661338 Mean Anom(rad): -0.9076481185 Af0(s): -0.0003753298096 Af1(s/s): -3.637979e-12 week: 147 ******** Week 147 almanac for PRN-30 ******** ID: 30 Health: 0 Eccentricity: 0.005469799042 Time of Applicability(s): 319488 Orbital Inclination(rad): 0.9357366696 Rate of Right Ascen(r/s): -8.251772291e-09 SQRT(A) (m 1/2): 5153.51709 Right Ascen at Week(rad): 1.48747151 Argument of Perigee(rad): -2.749732094 Mean Anom(rad): 2.395886244 Af0(s): -0.0004039694336 Af1(s/s): -3.637979e-12 week: 147 ******** Week 147 almanac for PRN-31 ******** ID: 31 Health: 0 Eccentricity: 0.01045942307 Time of Applicability(s): 319488 Orbital Inclination(rad): 0.9548035714 Rate of Right Ascen(r/s): -8.057478483e-09 SQRT(A) (m 1/2): 5153.620117 Right Ascen at Week(rad): 1.492186553 Argument of Perigee(rad): 0.3728415957 Mean Anom(rad): 1.913816303 Af0(s): -0.0001288783081 Af1(s/s): -3.637979e-12 week: 147 ******** Week 147 almanac for PRN-32 ******** ID: 32 Health: 0 Eccentricity: 0.005518436432 Time of Applicability(s): 319488 Orbital Inclination(rad): 0.9583029651 Rate of Right Ascen(r/s): -7.691748963e-09 SQRT(A) (m 1/2): 5153.729004 Right Ascen at Week(rad): 0.4133553915 Argument of Perigee(rad): -2.364070374 Mean Anom(rad): -0.364625286 Af0(s): -4.823515625e-05 Af1(s/s): -7.275958e-12 week: 147